Location: Hains Lake
(37.8540°N, 99.8578°W)
Time: 05:29:21
(UTC+00:00)

Cosmos 1741 Rocket - Pass Details

Date: 11 December 2019
Orbit: 762 x 782 km, 74.0° (Epoch: 26 January)

Event Time Altitude Azimuth Distance (km) Brightness Sun altitude
Exits shadow 12:21:03 - 342° (NNW) 2,486 6.3 -16.0°
Reaches altitude 10° 12:21:32 10° 342° (NNW) 2,301 6.1 -15.9°
Maximum altitude 12:26:46 87° 71° (ENE) 769 4.0 -15.0°
Drops below altitude 10° 12:31:59 10° 162° (SSE) 2,293 7.0 -14.0°
Sets 12:34:20 0° 163° (SSE) 3,217 7.8 -13.5°
